weather.gov     
National Weather Service

Weather Roundup
NWS Homepage
This page is being discontinued on March 12, 2014.
The same data is available at this site. Please update your bookmarks.
Thank you, and we apologize for the inconvenience.
Please send an email to SR-SRH.Webmaster@noaa.gov with any concerns.


Current Version
Previous Version:    01  02  03  04  05  06  07  08  09  10  11  12  13  14  15  16  17  18  19  20  21  22  23  24  25  26  27  28  29  30  
   31  32  33  34  35  36  37  38  39  40  41  42  43  44  45  46  47  48  49  50  51  52  53  54  55  56  57  58  59  60  
[Printable]
616
ASUS44 KCRP 210810
HRRCRP

SOUTH TEXAS REGIONAL WEATHER ROUNDUP
NATIONAL WEATHER SERVICE CORPUS CHRISTI TX
300 AM CDT SUN SEP 21 2014


TXZ229>244-210900-
...CORPUS CHRISTI AREA OBSERVATIONS...

CITY           SKY/WX    TMP DP  RH WIND       PRES   REMARKS
CORPUS CHRISTI PTCLDY    79  76  90 N8        29.92S
NAS CORPUS CHR CLEAR     82  77  84 E8        29.90F HX  90
ROCKPORT       PTCLDY    80  76  87 N7        29.92S
KINGSVILLE NAS PTCLDY    77  77 100 N5        29.92S
ALICE          PTCLDY    77  75  93 NE6       29.93S
FALFURRIAS     CLEAR    N/A N/A N/A CALM      29.92S
$$

...VICTORIA AREA OBSERVATIONS...

CITY           SKY/WX    TMP DP  RH WIND       PRES   REMARKS
VICTORIA       CLEAR     77  75  93 NE7       29.95S
BEEVILLE       FAIR      76  75  99 MISG      29.95R
PLEASANTON     CLEAR     73  71  93 CALM      29.98S
SAN ANTONIO    PTCLDY    76  71  85 CALM      30.00S
$$

...LAREDO AREA OBSERVATIONS...

CITY           SKY/WX    TMP DP  RH WIND       PRES   REMARKS
LAREDO         PTCLDY    78  76  94 CALM      29.98R
COTULLA        CLEAR     76  73  91 E6        29.97R
DEL RIO        MOCLDY    78  72  81 E5        29.98S
MCALLEN        CLEAR     78  77  96 N3        29.91F
HEBBRONVILLE     N/A     75  74  95 CALM      29.96S FOG
$$

...OTHER TEXAS OBSERVATIONS...

CITY           SKY/WX    TMP DP  RH WIND       PRES   REMARKS
BROWNSVILLE    PTCLDY    77  76  96 N3        29.89F
HOUSTON        PTCLDY    75  72  90 N3        29.97S
COL. STATION   CLEAR     73  69  87 CALM      29.99S
AUSTIN         CLEAR     74  72  93 CALM      29.99S
WACO           CLEAR     70  67  90 NE5       30.01R
FORT WORTH     CLEAR     76  63  64 CALM      30.01F
WICHITA FALLS  CLEAR     74  67  78 CALM      30.03S
LUBBOCK        FOG       68  66  93 CALM      30.14S VSB 1/2
EL PASO        PTCLDY    74  65  73 CALM      30.11R
$$

...MARINE OBSERVATIONS...

STATION/POSITION TIME  SKY/WX   TEMP    WIND        PRES    VSBY  WAVE   SWELL
                                AIR SEA DIR/SP/G                  HT/PER HT/PER
                 (UTC)          (F)     (DEG/KT/KT) (MB)    (MI)  (FT/S) (FT/S)
PORT ARANSAS     0800            82 84   80/ 21/ 23 1013.1F
BUOY 90 E PORT A 0800            84 85   90/ 17/ 19 1012.7R         5/ 6
BUOY 45 SE BAFFI 0800            83 85  100/  8/ 10 1011.7F         3/ 6   3/ 6
BUOY 200 E PT IS 0800            83 85   60/  4/  6 1011.9R         3/ 8   3/ 8
BUOY 15 E GALVES 0800            83 83   90/ 14/ 17 1013.4R         4/ 5
$$




U.S. Dept. of Commerce
NOAA National Weather Service
1325 East West Highway
Silver Spring, MD 20910
E-mail: w-nws.webmaster@noaa.gov
Page last modified: May 16, 2007
NATIONAL WEATHER SERVICE: for Safety, for Work, for Fun - FOR LIFE